Location: Hains Lake
(37.8540°N, 99.8578°W)
Time: 13:27:41
(UTC+00:00)

USA 116 - Pass Details

Date: 11 December 2019
Orbit: 405 x 834 km, 97.9° (Epoch: 18 November)

Event Time Altitude Azimuth Distance (km) Brightness Sun altitude
Rises 12:17:50 0° 168° (SSE) 2,805 7.7 -16.6°
Reaches altitude 10° 12:19:52 10° 169° (S) 1,969 6.9 -16.3°
Maximum altitude 12:24:12 83° 256° (WSW) 680 4.0 -15.4°
Drops below altitude 10° 12:29:06 10° 346° (NNW) 2,224 6.5 -14.5°
Sets 12:31:31 0° 347° (NNW) 3,201 7.3 -14.1°
